www.pogodaiklimat.ru

Погода и климат >> Архив погоды >> Австралия >> Северная территория >> Остров Центр


ПОГОДА на Острове Центр

  • Прогноз погоды на Острове Центр
  • Монитор погоды на Острове Центр

АРХИВ ПОГОДЫ на Острове Центр

Время (UTC), дата Ветер
(напр.,м/с)
 
Видим.   Явления Облачность Т
(С)
Тd
(С)
f
(%)
Тe
(С)
Тes
(С)
Комфортность P
(гПа)
Po
(гПа)
Тmin
(С)
Tmax
(С)
R
(мм)
R24
(мм)
S
(см)
05 19.06 В 5 н/о н/о +25.1 +9.0 36 +26 +26 жарко 1014.3 1012.8
06 19.06 В 5 н/о н/о +25.2 +10.6 40 +26 +26 жарко 1014.2 1012.7
08 19.06 В 3 н/о н/о +23.4 +11.8 48 +26 +26 жарко 1014.8 1013.3
09 19.06 В 2 н/о н/о +22.3 +12.0 52 +25 +25 комфорт 1015.1 1013.6
11 19.06 ЮВ 4 н/о н/о +21.8 +15.4 67 +25 +25 комфорт 1015.9 1014.4
12 19.06 ЮВ 4 н/о н/о +21.5 +15.3 68 +25 +25 комфорт 1016.0 1014.5
14 19.06 ЮВ 6 н/о н/о +21.1 +11.4 54 +23 +23 комфорт 1016.0 1014.5 +25.9
15 19.06 Ю 6 н/о н/о +20.5 +11.2 55 +22 +22 комфорт 1016.0 1014.5
17 19.06 Ю 7 н/о н/о +20.0 +8.7 48 +21 +21 комфорт 1016.0 1014.5
18 19.06 Ю 9 н/о н/о +19.5 +7.9 47 +20 +20 1016.0 1014.5
20 19.06 Ю 10 н/о н/о +18.6 +7.4 48 +18 +18 1016.7 1015.2
21 19.06 Ю 9 н/о н/о +18.2 +6.1 45 +17 +17 1017.3 1015.8
23 19.06 Ю 8 н/о н/о +19.0 +6.8 45 +19 +19 1018.7 1017.2
00 20.06 ЮВ 7 н/о н/о +20.8 +7.8 43 +22 +22 комфорт 1018.6 1017.1
02 20.06 В 7 н/о н/о +23.8 +9.0 39 +25 +25 комфорт 1017.6 1016.1 +18.0
03 20.06 В 6 н/о н/о +24.9 +10.4 40 +26 +26 жарко 1016.9 1015.4
05 20.06 В 3 н/о н/о +25.2 +9.9 38 +26 +26 жарко 1015.1 1013.6
06 20.06 СВ 2 н/о н/о +25.6 +6.8 30 +25 +25 комфорт 1014.9 1013.4
08 20.06 В 5 н/о н/о +23.4 +13.0 52 +26 +26 жарко 1015.1 1013.6
09 20.06 В 5 н/о н/о +22.1 +14.0 60 +25 +25 комфорт 1015.7 1014.2
11 20.06 В 4 н/о н/о +21.5 +14.6 65 +25 +25 комфорт 1016.7 1015.2
12 20.06 В 5 н/о н/о +21.4 +15.3 68 +25 +25 комфорт 1017.2 1015.7
14 20.06 ЮВ 4 н/о н/о +20.2 +16.4 79 +23 +23 комфорт 1017.2 1015.7 +26.4
15 20.06 Ю 5 н/о н/о +19.4 +14.2 72 +21 +21 комфорт 1017.0 1015.5
17 20.06 Ю 8 н/о н/о +20.0 +7.1 43 +20 +20 1017.0 1015.5
18 20.06 Ю 8 н/о н/о +19.2 +7.3 46 +19 +19 1016.9 1015.4
20 20.06 Ю 8 н/о н/о +18.3 +6.8 47 +18 +18 1017.2 1015.7
21 20.06 ЮВ 9 н/о н/о +17.9 +6.4 47 +17 +17 1017.8 1016.3
23 20.06 ЮВ 9 н/о н/о +18.6 +6.8 46 +18 +18 1018.5 1017.0
00 21.06 ЮВ 8 н/о н/о +19.7 +5.4 39 +20 +20 1018.6 1017.1
02 21.06 В 8 н/о н/о +22.5 +9.0 42 +24 +24 комфорт 1017.7 1016.2 +17.8
03 21.06 В 7 н/о н/о +23.6 +9.2 40 +24 +24 комфорт 1016.7 1015.2
05 21.06 В 5 н/о н/о +25.0 +10.5 40 +26 +26 жарко 1014.7 1013.2
06 21.06 В 5 н/о н/о +25.1 +12.7 46 +27 +27 жарко 1014.4 1012.9
08 21.06 В 5 н/о н/о +22.8 +14.4 59 +26 +26 жарко 1014.5 1013.0
09 21.06 В 6 н/о н/о +21.7 +13.6 60 +24 +24 комфорт 1015.1 1013.6
11 21.06 В 7 н/о н/о +21.5 +14.2 63 +24 +24 комфорт 1016.1 1014.6
12 21.06 ЮВ 7 н/о н/о +21.5 +14.9 66 +25 +25 комфорт 1016.6 1015.1
14 21.06 ЮВ 9 н/о н/о +21.1 +13.5 62 +24 +24 комфорт 1016.2 1014.7 +25.8
15 21.06 ЮВ 9 н/о н/о +20.3 +11.2 56 +21 +21 комфорт 1016.2 1014.7
17 21.06 ЮВ 11 н/о н/о +19.4 +8.4 49 +19 +19 1016.2 1014.7
18 21.06 ЮВ 10 н/о н/о +18.6 +7.4 48 +18 +18 1016.2 1014.7
20 21.06 Ю 8 н/о н/о +17.6 +7.6 52 +17 +17 1016.6 1015.1
21 21.06 ЮВ 8 н/о н/о +17.1 +6.6 50 +16 +16 1017.0 1015.5
23 21.06 Ю 8 н/о н/о +17.2 +5.5 46 +16 +16 1018.2 1016.7
00 22.06 ЮВ 7 н/о н/о +18.2 +5.1 42 +18 +18 1018.5 1017.0
02 22.06 ЮВ 6 н/о н/о +22.5 +4.5 31 +23 +23 комфорт 1017.3 1015.8 +16.7
03 22.06 В 5 н/о н/о +22.7 +7.3 37 +24 +24 комфорт 1016.4 1014.9
05 22.06 В 3 н/о н/о +23.7 +5.6 31 +24 +24 комфорт 1014.6 1013.1
06 22.06 В 2 н/о н/о +23.9 +9.1 39 +25 +25 комфорт 1014.3 1012.8
08 22.06 В 5 н/о н/о +21.9 +9.8 46 +23 +23 комфорт 1014.6 1013.1
09 22.06 В 5 н/о н/о +20.9 +11.5 55 +23 +23 комфорт 1014.9 1013.4
11 22.06 В 4 н/о н/о +20.3 +13.3 64 +23 +23 комфорт 1016.0 1014.5
12 22.06 ЮВ 7 н/о н/о +20.8 +14.2 66 +23 +23 комфорт 1016.4 1014.9
14 22.06 ЮВ 7 н/о н/о +19.8 +13.3 66 +21 +21 комфорт 1016.3 1014.8 +24.1
15 22.06 ЮВ 9 н/о н/о +19.6 +11.1 58 +20 +20 1016.3 1014.8
17 22.06 ЮВ 8 н/о н/о +18.7 +8.4 51 +18 +18 1016.3 1014.8
18 22.06 ЮВ 8 н/о н/о +17.8 +7.5 51 +17 +17 1016.3 1014.8
20 22.06 ЮВ 9 н/о н/о +17.3 +6.2 48 +16 +16 1016.8 1015.3
21 22.06 ЮВ 8 н/о н/о +16.7 +6.5 51 +15 +15 1017.3 1015.8
23 22.06 ЮВ 9 н/о н/о +17.1 +4.8 44 +16 +16 1018.1 1016.6
00 23.06 ЮВ 10 н/о н/о +18.0 +2.7 36 +17 +17 1018.5 1017.0
02 23.06 В 9 н/о н/о +20.8 +5.2 36 +21 +21 комфорт 1018.0 1016.5 +16.3
03 23.06 В 7 н/о н/о +22.1 +4.2 31 +22 +22 комфорт 1017.1 1015.6
05 23.06 В 3 н/о н/о +23.3 +3.8 28 +23 +23 комфорт 1015.6 1014.1
06 23.06 СВ 3 н/о н/о +23.3 +1.6 24 +23 +23 комфорт 1015.3 1013.8
08 23.06 СВ 2 н/о н/о +22.2 +3.3 29 +22 +22 комфорт 1015.4 1013.9
09 23.06 В 3 н/о н/о +20.0 +8.7 48 +21 +21 комфорт 1015.8 1014.3
11 23.06 В 5 н/о н/о +19.8 +11.6 59 +21 +21 комфорт 1016.9 1015.4
12 23.06 В 4 н/о н/о +19.2 +12.2 64 +20 +20 1017.1 1015.6
14 23.06 ЮВ 6 н/о н/о +19.7 +14.1 70 +21 +21 комфорт 1016.8 1015.3 +24.3
15 23.06 ЮВ 6 н/о н/о +18.7 +14.6 77 +19 +19 1017.3 1015.8
17 23.06 Ю 7 н/о н/о +18.2 +6.7 47 +18 +18 1017.6 1016.1
18 23.06 Ю 8 н/о н/о +17.4 +4.7 43 +16 +16 1017.5 1016.0
20 23.06 Ю 8 н/о н/о +16.4 +2.1 38 +15 +15 1018.1 1016.6
21 23.06 Ю 8 н/о н/о +16.1 +1.0 36 +15 +15 1018.5 1017.0
23 23.06 ЮВ 8 н/о н/о +16.9 +1.0 34 +16 +16 1019.7 1018.2
00 24.06 ЮВ 8 н/о н/о +18.1 +2.0 34 +17 +17 1020.2 1018.7
02 24.06 ЮВ 11 н/о н/о +21.3 +5.6 36 +22 +22 комфорт 1019.5 1018.0 +15.9
03 24.06 В 9 н/о н/о +21.9 +6.6 37 +23 +23 комфорт 1018.8 1017.3
05 24.06 В 7 н/о н/о +23.6 +8.1 37 +24 +24 комфорт 1017.0 1015.5
06 24.06 В 6 н/о н/о +23.9 +9.5 40 +25 +25 комфорт 1016.6 1015.1
08 24.06 ЮВ 4 н/о н/о +21.8 +11.5 52 +24 +24 комфорт 1016.9 1015.4
09 24.06 В 3 н/о н/о +20.0 +12.7 63 +22 +22 комфорт 1017.4 1015.9
11 24.06 В 5 н/о н/о +19.8 +13.0 65 +21 +21 комфорт 1018.7 1017.2
12 24.06 В 5 н/о н/о +19.5 +13.2 67 +21 +21 комфорт 1018.8 1017.3
14 24.06 ЮВ 6 н/о н/о +19.3 +14.1 72 +20 +20 1018.8 1017.3 +24.3
15 24.06 ЮВ 7 н/о н/о +19.2 +11.0 59 +20 +20 1018.8 1017.3
17 24.06 ЮВ 10 н/о н/о +18.8 +5.6 42 +18 +18 1018.2 1016.7
18 24.06 ЮВ 11 н/о н/о +18.6 +4.0 38 +18 +18 1018.1 1016.6
20 24.06 ЮВ 6 н/о н/о +16.9 +4.9 45 +16 +16 1018.8 1017.3
21 24.06 ЮВ 6 н/о н/о +16.3 +4.4 45 +15 +15 1019.3 1017.8
23 24.06 Ю 7 н/о н/о +17.2 +1.6 35 +16 +16 1020.3 1018.8
00 25.06 Ю 7 н/о н/о +18.2 +1.7 33 +18 +18 1020.2 1018.7
02 25.06 ЮВ 3 н/о н/о +21.4 +4.5 33 +22 +22 комфорт 1019.4 1017.9 +16.2
03 25.06 ЮВ 2 н/о н/о +21.6 +5.9 36 +22 +22 комфорт 1018.5 1017.0
05 25.06 В 3 н/о н/о +24.7 +6.4 31 +25 +25 комфорт 1017.1 1015.6
06 25.06 В 2 н/о н/о +24.5 +2.0 23 +23 +23 комфорт 1016.7 1015.2
08 25.06 В 3 н/о н/о +22.3 +13.4 57 +25 +25 комфорт 1016.8 1015.3
09 25.06 В 5 н/о н/о +20.8 +12.8 60 +23 +23 комфорт 1017.4 1015.9
11 25.06 В 4 н/о н/о +19.6 +14.2 71 +21 +21 комфорт 1018.1 1016.6
12 25.06 ЮВ 4 н/о н/о +19.3 +14.8 75 +21 +21 комфорт 1018.3 1016.8
14 25.06 ЮВ 4 н/о н/о +18.4 +15.8 85 +19 +19 1018.0 1016.5 +25.7
15 25.06 ЮВ 4 н/о н/о +18.1 +15.9 87 +18 +18 1017.9 1016.4
17 25.06 Ю 4 н/о н/о +17.4 +14.7 84 +17 +17 1017.8 1016.3
18 25.06 ЮВ 5 н/о н/о +17.8 +14.1 79 +17 +17 1017.7 1016.2
20 25.06 Ю 5 н/о н/о +17.6 +8.7 56 +17 +17 1017.9 1016.4
21 25.06 Ю 6 н/о н/о +17.1 +7.7 54 +16 +16 1018.3 1016.8
23 25.06 Ю 8 н/о н/о +18.2 +7.0 48 +17 +17 1019.0 1017.5
00 26.06 ЮВ 6 н/о н/о +19.4 +7.8 47 +20 +20 1019.2 1017.7
02 26.06 В 8 н/о н/о +23.2 +11.9 49 +26 +26 жарко 1017.8 1016.3 +16.9
03 26.06 В 8 н/о н/о +23.8 +12.1 48 +26 +26 жарко 1017.0 1015.5

 

Местоположение метеостанции Остров Центр (Северная территория, Австралия): широта -15.75 долгота 136.80 высота над уровнем моря 13 м.

В архиве по умолчанию представлена погода на Острове Центр за последнюю неделю. Архивные данные за месяц целиком и за предыдущие месяцы, начиная с января 2011 года, Вы можете получить, выбрав интересующий диапазон дат из раскрывающегося списка и нажав кнопку "Ввод!".


*Определитесь, кто Вы:
робот инопланетянин человек

Внимание! Время в таблицах - всемирное. Для получения местного времени необходимо прибавить поправку, которая равна 9.5 ч.

Смотрите также архив погоды в соседних городах и на ближайших метеорологических станциях:

Погода в Борролооле (Северная территория, Австралия) (65 км)
Погода в Аэропорту Макартур Ривер Майн (Северная территория, Австралия) (109 км)
Погода в Аэропорту Грут-Айленд (Северная территория, Австралия) (200 км)
Погода на Острове Северо-восточный (Северная территория, Австралия) (234 км)
Погода на Острове Морнингтон (Квинсленд, Австралия) (273 км)
Погода в Булман Уимол (Северная территория, Австралия) (352 км)
Погода в Беркетауне (Квинсленд, Австралия) (366 км)
Погода в Дейли Уотерс (Северная территория, Австралия) (371 км)
Погода в Аэропорту Гоув (Северная территория, Австралия) (386 км)
Погода на Руднике Century Mine (Квинсленд, Австралия) (390 км)

Пояснения к столбцам:

Ветер - указаны скорость ветра в м/с - средняя за 10 мин, порывы в срок и между сроками (в фигурных скобках) и направление, откуда дует ветер: С - северный, СВ - северо-восточный, В - восточный, ЮВ - юго-восточный, Ю - южный, ЮЗ - юго-западный, З - западный, СЗ - северо-западный.
Видимость - горизонтальная дальность видимости в метрах или километрах. При видимости от 1 до 10 км при отсутствии осадков обычно наблюдается дымка, при ухудшении видимости до 1 км и менее - туман. В сухую погоду видимость может ухудшаться дымом, пылью или мглою.
Явления - указаны атмосферные явления, наблюдавшиеся в срок или в последний час перед сроком; фигурными скобками обозначены явления, наблюдавшиеся между сроками (за 1-3 часа до срока); квадратными скобками обозначены град или гололедные отложения с указанием их диаметра в мм.
Облачность - указаны через наклонную черту общая и нижняя облачность в баллах и высота нижней границы облаков в метрах; квадратными скобками обозначены формы облаков: Ci - перистые, Cs - перисто-слоистые, Cc - перисто-кучевые, Ac - высококучевые, As - высокослоистые, Sc - слоисто-кучевые, Ns - слоисто-дождевые, Cu - кучевые, Cb - кучево-дождевые. Подробнее классификацию облаков см. в Атласе облаков (PDF).
T - Температура воздуха - температура, измеренная на высоте 2 м над землей.
Td - Температура точки росы - температура, при понижении до которой содержащийся в воздухе водяной пар достигнет насыщения.
f - Относительная влажность воздуха - влажноcть воздуха, измеренная на высоте 2 м над землей.
Te - Эффективная температура - температура, которую ощущает одетый по сезону человек в тени. Характеристика душности погоды. При расчете учитывается влияние влажности воздуха и скорости ветра на теплоощущения человека.
Tes - Эффективная температура на солнце - температура, которую ощущает человек, с поправкой на солнечный нагрев. Характеристика знойности погоды. Зависит от высоты солнца над горизонтом, облачности и скорости ветра. Ночью, в пасмурную погоду, а также при ветре 12 м/с и более поправка равна нулю.
P - Атмосферное давление - приведенное к уровню моря атмосферное давление.
Po - Атмосферное давление - измеренное на уровне метеостанции атмосферное давление.
Tmin - Минимальная температура - минимум температуры воздуха на высоте 2 м над землей.
Tmax - Максимальная температура - максимум температуры воздуха на высоте 2 м над землей.
R - Количество осадков - Количество выпавших осадков за период времени, мм. При наведении курсора мыши на число - период времени, за который выпало указанное количество осадков.
R24 - Количество осадков - Количество выпавших осадков за 24 часа, мм.
S - Снежный покров - Высота снежного покрова, см. При наведении курсора мыши на число - состояние снежного покрова и степень покрытия местности в баллах.